ギブス彗星

C/2018 A6 ( Gibbs )

English version
Home page
Updated on August 6, 2019

---------------------------------------------------------------------

・ プロフィール

発見日 2018年1月15日
発見光度 19.3等
発見者 A. R. Gibbs (Mount Lemmon)

・ 写真集

・ 軌道要素

Epoch 2019 July 16.0 TT = JDT 2458680.5
T 2019 July 14.26684 TT                                 MPCW
q   3.0177637            (2000.0)            P               Q
n   0.01637690     Peri.  264.52763     -0.16525649     +0.93045657
a  15.3573014      Node   340.38603     +0.22092861     -0.28822615
e   0.8034965      Incl.   76.95484     -0.96118720     -0.22622169
P  60.18
From 334 observations 2017 Apr. 3-2019 May 11, mean residual 0".4.

・ 星図

・ 光度変化

        m1 = 4.2 + 5 logΔ + 15.0 log r

---------------------------------------------------------------------

軌道要素はM.P.E.C. 2019-J142に掲載されたものです。
星図はステラナビゲータ Ver.10 (アストロアーツ) で作成したものです。
光度グラフはComet for Windowsで作成したものです。

---------------------------------------------------------------------

Copyright(C) Seiichi Yoshida (comet@aerith.net). All rights reserved.